SBI1015 UWKD-URWW

Flight info

Callsign SBI1015
Flight time 1h 18m
Altitude 38000
Route SONUM T789 DAFOS P135 UROBO R807 RODUN
Aircraft A319/M-SDE3FGHIRWY/LB1

Departure

Time 2026-04-21 20:05
Airport Kazan International Airport (UWKD)

Arrival

Time 2026-04-21 21:24
Airport Volgograd International Airport (URWW)
Time Latitude Longitude Altitude Speed Heading
2026-04-21 19:33 55.60889 49.29496 408 ft 0 kts 35°
2026-04-21 19:50 55.60890 49.29496 408 ft 0 kts 35°
2026-04-21 19:50 55.60883 49.29488 409 ft 2 kts 34°
2026-04-21 19:51 55.60870 49.29473 409 ft 2 kts 34°
2026-04-21 19:51 55.60861 49.29461 409 ft 2 kts 34°
2026-04-21 19:51 55.60847 49.29452 409 ft 2 kts
2026-04-21 19:51 55.60832 49.29455 409 ft 2 kts 340°
2026-04-21 19:52 55.60819 49.29467 410 ft 2 kts 317°
2026-04-21 19:52 55.60810 49.29488 410 ft 2 kts 299°
2026-04-21 19:52 55.60801 49.29510 410 ft 2 kts 305°
2026-04-21 19:52 55.60793 49.29532 411 ft 2 kts 304°
2026-04-21 19:53 55.60784 49.29554 411 ft 2 kts 305°
2026-04-21 19:53 55.60772 49.29570 412 ft 2 kts 345°
2026-04-21 19:53 55.60757 49.29570 412 ft 2 kts 18°
2026-04-21 19:53 55.60745 49.29556 412 ft 2 kts 39°
2026-04-21 19:54 55.60732 49.29541 412 ft 1 kts 33°
2026-04-21 19:54 55.60730 49.29538 412 ft 0 kts 34°
2026-04-21 19:56 55.60731 49.29540 412 ft 1 kts 34°
2026-04-21 19:57 55.60749 49.29562 412 ft 4 kts 39°
2026-04-21 19:57 55.60756 49.29620 413 ft 5 kts 114°
2026-04-21 19:57 55.60733 49.29687 415 ft 7 kts 124°
2026-04-21 19:57 55.60693 49.29789 416 ft 12 kts 124°
2026-04-21 19:58 55.60638 49.29932 417 ft 16 kts 124°
2026-04-21 19:58 55.60585 49.30064 419 ft 10 kts 133°
2026-04-21 19:58 55.60516 49.30078 421 ft 10 kts 214°
2026-04-21 19:58 55.60444 49.29987 420 ft 13 kts 216°
2026-04-21 19:59 55.60348 49.29891 418 ft 18 kts 194°
2026-04-21 19:59 55.60208 49.29931 416 ft 22 kts 156°
2026-04-21 19:59 55.60059 49.30058 414 ft 22 kts 154°
2026-04-21 19:59 55.59979 49.30123 412 ft 10 kts 163°
2026-04-21 20:00 55.59916 49.30113 409 ft 5 kts 203°
2026-04-21 20:00 55.59912 49.30109 409 ft 0 kts 206°
2026-04-21 20:03 55.59909 49.30107 409 ft 1 kts 207°
2026-04-21 20:03 55.59882 49.30076 408 ft 7 kts 213°
2026-04-21 20:03 55.59829 49.29986 406 ft 12 kts 254°
2026-04-21 20:04 55.59839 49.29914 406 ft 0 kts 308°
2026-04-21 20:04 55.59839 49.29913 406 ft 0 kts 308°
2026-04-21 20:04 55.59931 49.29673 408 ft 61 kts 304°
2026-04-21 20:05 55.60318 49.28664 400 ft 132 kts 303°
2026-04-21 20:05 55.60889 49.27215 880 ft 148 kts 303°
2026-04-21 20:05 55.61446 49.25779 1784 ft 142 kts 302°
2026-04-21 20:05 55.61982 49.24390 2509 ft 141 kts 303°
2026-04-21 20:06 55.62560 49.22887 2949 ft 157 kts 303°
2026-04-21 20:06 55.63208 49.21207 3412 ft 174 kts 303°
2026-04-21 20:06 55.63922 49.19356 3820 ft 194 kts 304°
2026-04-21 20:06 55.64690 49.17371 3956 ft 196 kts 304°
2026-04-21 20:07 55.65459 49.15382 3960 ft 197 kts 302°
2026-04-21 20:07 55.65911 49.13027 4094 ft 218 kts 268°
2026-04-21 20:07 55.65279 49.10437 4608 ft 248 kts 229°
2026-04-21 20:07 55.63752 49.08917 5288 ft 270 kts 197°
2026-04-21 20:08 55.61901 49.08260 6271 ft 274 kts 193°
2026-04-21 20:08 55.60036 49.07634 7266 ft 277 kts 194°
2026-04-21 20:08 55.58153 49.06968 8213 ft 281 kts 194°
2026-04-21 20:08 55.56242 49.06259 9140 ft 286 kts 195°
2026-04-21 20:09 55.54303 49.05516 10044 ft 290 kts 195°
2026-04-21 20:09 55.52286 49.04725 10675 ft 305 kts 195°
2026-04-21 20:09 55.50187 49.03895 11322 ft 318 kts 195°
2026-04-21 20:09 55.48018 49.03037 12175 ft 323 kts 196°
2026-04-21 20:10 55.45849 49.02177 13003 ft 327 kts 196°
2026-04-21 20:10 55.43627 49.01293 13810 ft 332 kts 196°
2026-04-21 20:10 55.41349 49.00388 14583 ft 337 kts 196°
2026-04-21 20:10 55.39069 48.99478 15329 ft 342 kts 196°
2026-04-21 20:11 55.36758 48.98555 16069 ft 347 kts 196°
2026-04-21 20:11 55.34384 48.97610 16805 ft 351 kts 195°
2026-04-21 20:11 55.32007 48.96666 17518 ft 355 kts 195°
2026-04-21 20:11 55.29591 48.95711 18215 ft 359 kts 195°
2026-04-21 20:12 55.27155 48.94749 18906 ft 363 kts 195°
2026-04-21 20:12 55.24692 48.93779 19564 ft 367 kts 195°
2026-04-21 20:12 55.22192 48.92798 20221 ft 371 kts 195°
2026-04-21 20:12 55.19699 48.91819 20867 ft 374 kts 195°
2026-04-21 20:13 55.17147 48.90818 21514 ft 376 kts 196°
2026-04-21 20:13 55.14613 48.89823 22132 ft 379 kts 196°
2026-04-21 20:13 55.12039 48.88813 22725 ft 382 kts 196°
2026-04-21 20:13 55.09436 48.87793 23314 ft 385 kts 196°
2026-04-21 20:14 55.06817 48.86767 23907 ft 388 kts 196°
2026-04-21 20:14 55.04201 48.85744 24471 ft 391 kts 196°
2026-04-21 20:14 55.01557 48.84710 25031 ft 394 kts 196°
2026-04-21 20:14 54.98856 48.83654 25602 ft 396 kts 196°
2026-04-21 20:15 54.96197 48.82618 26151 ft 399 kts 196°
2026-04-21 20:15 54.93465 48.81556 26703 ft 402 kts 196°
2026-04-21 20:15 54.90767 48.80508 27225 ft 405 kts 196°
2026-04-21 20:15 54.88014 48.79438 27619 ft 411 kts 196°
2026-04-21 20:16 54.85215 48.78213 28044 ft 414 kts 200°
2026-04-21 20:16 54.82496 48.76577 28543 ft 414 kts 206°
2026-04-21 20:16 54.79913 48.74532 29035 ft 414 kts 211°
2026-04-21 20:16 54.77401 48.72134 29511 ft 415 kts 213°
2026-04-21 20:17 54.74888 48.69661 29971 ft 417 kts 213°
2026-04-21 20:17 54.72367 48.67173 30379 ft 419 kts 213°
2026-04-21 20:17 54.69822 48.64669 30767 ft 423 kts 213°
2026-04-21 20:17 54.67263 48.62159 31105 ft 425 kts 213°
2026-04-21 20:18 54.64701 48.59651 31485 ft 425 kts 213°
2026-04-21 20:18 54.62152 48.57163 31894 ft 423 kts 213°
2026-04-21 20:18 54.59596 48.54673 32283 ft 421 kts 213°
2026-04-21 20:18 54.57216 48.52377 33611 ft 380 kts 212°
2026-04-21 20:19 54.55172 48.50451 35710 ft 319 kts 212°
2026-04-21 20:19 54.53391 48.48774 36817 ft 286 kts 213°
2026-04-21 20:19 54.51652 48.47044 36784 ft 301 kts 214°
2026-04-21 20:19 54.49780 48.45068 36351 ft 329 kts 215°
2026-04-21 20:20 54.47816 48.43002 36399 ft 339 kts 213°
2026-04-21 20:20 54.43578 48.39022 36594 ft 356 kts 211°
2026-04-21 20:20 54.41394 48.36979 36728 ft 362 kts 212°
2026-04-21 20:21 54.39166 48.34869 36858 ft 369 kts 211°
2026-04-21 20:21 54.36913 48.32722 36989 ft 375 kts 211°
2026-04-21 20:21 54.34639 48.30545 37108 ft 381 kts 211°
2026-04-21 20:21 54.32291 48.28298 37230 ft 387 kts 211°
2026-04-21 20:22 54.29947 48.26054 37342 ft 393 kts 211°
2026-04-21 20:22 54.25037 48.21613 37562 ft 405 kts 206°
2026-04-21 20:22 54.22467 48.19648 37667 ft 411 kts 206°
2026-04-21 20:23 54.17186 48.15612 37769 ft 425 kts 206°
2026-04-21 20:23 54.11694 48.11424 37776 ft 440 kts 206°
2026-04-21 20:24 54.06016 48.07113 37777 ft 454 kts 205°
2026-04-21 20:24 54.00256 48.02753 37778 ft 457 kts 205°
2026-04-21 20:25 53.94446 47.98365 37781 ft 457 kts 205°
2026-04-21 20:25 53.88679 47.94026 37782 ft 457 kts 205°
2026-04-21 20:26 53.82747 47.90032 37781 ft 458 kts 200°
2026-04-21 20:26 53.76642 47.87125 37783 ft 460 kts 195°
2026-04-21 20:27 53.70484 47.84408 37782 ft 458 kts 199°
2026-04-21 20:27 53.64519 47.80734 37782 ft 457 kts 204°
2026-04-21 20:28 53.58652 47.76827 37788 ft 457 kts 203°
2026-04-21 20:28 53.52731 47.72915 37782 ft 458 kts 203°
2026-04-21 20:29 53.46915 47.68756 37780 ft 456 kts 208°
2026-04-21 20:29 53.41322 47.63797 37785 ft 455 kts 210°
2026-04-21 20:30 53.35797 47.58824 37785 ft 455 kts 210°
2026-04-21 20:30 53.30218 47.53816 37788 ft 454 kts 210°
2026-04-21 20:31 53.24663 47.48836 37805 ft 454 kts 210°
2026-04-21 20:31 53.19132 47.43892 37803 ft 454 kts 210°
2026-04-21 20:32 53.13586 47.38953 37807 ft 454 kts 210°
2026-04-21 20:32 53.08047 47.34038 37809 ft 453 kts 209°
2026-04-21 20:33 53.02488 47.29115 37807 ft 454 kts 209°
2026-04-21 20:33 52.96911 47.24190 37810 ft 454 kts 210°
2026-04-21 20:34 52.91370 47.19307 37810 ft 454 kts 210°
2026-04-21 20:34 52.85801 47.14414 37811 ft 454 kts 210°
2026-04-21 20:35 52.80234 47.09541 37812 ft 453 kts 210°
2026-04-21 20:35 52.74704 47.04722 37812 ft 453 kts 210°
2026-04-21 20:36 52.69127 46.99871 37816 ft 453 kts 209°
2026-04-21 20:36 52.63594 46.95070 37819 ft 452 kts 209°
2026-04-21 20:37 52.58044 46.90269 37821 ft 452 kts 209°
2026-04-21 20:37 52.52500 46.85486 37826 ft 452 kts 209°
2026-04-21 20:38 52.46955 46.80720 37831 ft 452 kts 209°
2026-04-21 20:38 52.41422 46.75977 37835 ft 452 kts 209°
2026-04-21 20:39 52.35854 46.71217 37838 ft 451 kts 209°
2026-04-21 20:39 52.30330 46.66505 37849 ft 450 kts 209°
2026-04-21 20:40 52.24795 46.61793 37853 ft 450 kts 209°
2026-04-21 20:40 52.19247 46.57087 37863 ft 451 kts 209°
2026-04-21 20:41 52.13711 46.52408 37870 ft 451 kts 209°
2026-04-21 20:41 52.08155 46.47725 37876 ft 451 kts 209°
2026-04-21 20:42 52.02604 46.43059 37873 ft 451 kts 209°
2026-04-21 20:42 51.97036 46.38396 37874 ft 451 kts 209°
2026-04-21 20:43 51.91479 46.33756 37881 ft 450 kts 208°
2026-04-21 20:43 51.85934 46.29132 37892 ft 449 kts 208°
2026-04-21 20:44 51.80401 46.24533 37889 ft 449 kts 208°
2026-04-21 20:44 51.74885 46.19964 37894 ft 449 kts 208°
2026-04-21 20:45 51.69311 46.15358 37903 ft 449 kts 208°
2026-04-21 20:45 51.63775 46.10792 37901 ft 449 kts 208°
2026-04-21 20:46 51.58265 46.06261 37901 ft 448 kts 208°
2026-04-21 20:46 51.52692 46.01827 37894 ft 448 kts 207°
2026-04-21 20:47 51.47068 45.97570 37891 ft 447 kts 206°
2026-04-21 20:47 51.41472 45.93334 37885 ft 447 kts 207°
2026-04-21 20:48 51.35886 45.89101 37885 ft 447 kts 207°
2026-04-21 20:48 51.30277 45.84857 37879 ft 446 kts 207°
2026-04-21 20:49 51.24674 45.80623 37882 ft 446 kts 207°
2026-04-21 20:49 51.19096 45.76419 37880 ft 446 kts 207°
2026-04-21 20:50 51.13505 45.72218 37872 ft 444 kts 207°
2026-04-21 20:50 51.07948 45.68079 37868 ft 445 kts 205°
2026-04-21 20:51 51.02197 45.64563 37866 ft 445 kts 200°
2026-04-21 20:51 50.96220 45.61996 37870 ft 447 kts 195°
2026-04-21 20:52 50.90160 45.59816 37873 ft 447 kts 195°
2026-04-21 20:52 50.84113 45.57623 37874 ft 447 kts 195°
2026-04-21 20:53 50.78106 45.55465 37874 ft 446 kts 195°
2026-04-21 20:53 50.72037 45.53344 37870 ft 446 kts 195°
2026-04-21 20:54 50.66004 45.51250 37874 ft 446 kts 195°
2026-04-21 20:54 50.59962 45.49154 37882 ft 446 kts 195°
2026-04-21 20:55 50.53927 45.47063 37883 ft 446 kts 195°
2026-04-21 20:55 50.47905 45.44982 37891 ft 446 kts 195°
2026-04-21 20:56 50.41861 45.42898 37831 ft 436 kts 195°
2026-04-21 20:56 50.38953 45.41900 37553 ft 429 kts 195°
2026-04-21 20:56 50.36050 45.40903 37165 ft 425 kts 195°
2026-04-21 20:57 50.33197 45.39922 36729 ft 423 kts 195°
2026-04-21 20:57 50.30340 45.38942 36262 ft 421 kts 195°
2026-04-21 20:57 50.27503 45.37970 35776 ft 421 kts 195°
2026-04-21 20:57 50.24623 45.36984 35234 ft 421 kts 195°
2026-04-21 20:58 50.21788 45.36014 34712 ft 421 kts 195°
2026-04-21 20:58 50.18958 45.35048 34189 ft 422 kts 195°
2026-04-21 20:58 50.16074 45.34064 33659 ft 423 kts 194°
2026-04-21 20:58 50.13242 45.33098 33096 ft 423 kts 194°
2026-04-21 20:59 50.10347 45.32112 32581 ft 421 kts 194°
2026-04-21 20:59 50.07528 45.31155 32105 ft 417 kts 194°
2026-04-21 20:59 50.04703 45.30198 31576 ft 414 kts 194°
2026-04-21 20:59 50.01942 45.29228 30915 ft 409 kts 196°
2026-04-21 21:00 49.99216 45.28057 30323 ft 402 kts 198°
2026-04-21 21:00 49.96559 45.26887 29763 ft 395 kts 198°
2026-04-21 21:00 49.93960 45.25749 29192 ft 389 kts 198°
2026-04-21 21:00 49.91347 45.24604 28520 ft 386 kts 198°
2026-04-21 21:01 49.88811 45.23491 27908 ft 382 kts 198°
2026-04-21 21:01 49.86277 45.22378 27422 ft 376 kts 198°
2026-04-21 21:01 49.83789 45.21286 26988 ft 369 kts 198°
2026-04-21 21:01 49.81340 45.20210 26577 ft 361 kts 198°
2026-04-21 21:02 49.78934 45.19153 26188 ft 358 kts 198°
2026-04-21 21:02 49.76570 45.18115 25808 ft 357 kts 198°
2026-04-21 21:02 49.74186 45.17069 25425 ft 356 kts 198°
2026-04-21 21:02 49.71787 45.16021 25042 ft 355 kts 198°
2026-04-21 21:03 49.69444 45.14945 24664 ft 352 kts 202°
2026-04-21 21:03 49.67254 45.13369 24290 ft 349 kts 211°
2026-04-21 21:03 49.65269 45.11236 23911 ft 347 kts 220°
2026-04-21 21:03 49.63508 45.08742 23515 ft 345 kts 224°
2026-04-21 21:04 49.61782 45.06186 23055 ft 342 kts 224°
2026-04-21 21:04 49.60091 45.03670 22573 ft 340 kts 224°
2026-04-21 21:04 49.58387 45.01136 22053 ft 339 kts 224°
2026-04-21 21:04 49.56708 44.98643 21548 ft 338 kts 224°
2026-04-21 21:05 49.55025 44.96144 21053 ft 337 kts 224°
2026-04-21 21:05 49.53336 44.93641 20531 ft 336 kts 224°
2026-04-21 21:05 49.51654 44.91149 20022 ft 335 kts 224°
2026-04-21 21:05 49.49983 44.88673 19524 ft 335 kts 224°
2026-04-21 21:06 49.48313 44.86203 19024 ft 334 kts 224°
2026-04-21 21:06 49.46641 44.83733 18525 ft 334 kts 224°
2026-04-21 21:06 49.44984 44.81285 18058 ft 333 kts 225°
2026-04-21 21:06 49.43327 44.78841 17616 ft 330 kts 224°
2026-04-21 21:07 49.41685 44.76422 17173 ft 329 kts 224°
2026-04-21 21:07 49.40043 44.74006 16733 ft 327 kts 224°
2026-04-21 21:07 49.38412 44.71612 16282 ft 326 kts 224°
2026-04-21 21:07 49.36775 44.69210 15844 ft 324 kts 224°
2026-04-21 21:08 49.35163 44.66847 15421 ft 322 kts 224°
2026-04-21 21:08 49.33547 44.64480 14996 ft 320 kts 224°
2026-04-21 21:08 49.31947 44.62143 14585 ft 318 kts 224°
2026-04-21 21:08 49.30350 44.59809 14186 ft 315 kts 224°
2026-04-21 21:09 49.28781 44.57518 13758 ft 312 kts 224°
2026-04-21 21:09 49.27208 44.55224 13340 ft 310 kts 224°
2026-04-21 21:09 49.25654 44.52959 12915 ft 307 kts 224°
2026-04-21 21:09 49.24124 44.50732 12505 ft 304 kts 224°
2026-04-21 21:10 49.22595 44.48506 12089 ft 303 kts 224°
2026-04-21 21:10 49.21083 44.46307 11672 ft 303 kts 224°
2026-04-21 21:10 49.19554 44.44086 11250 ft 301 kts 224°
2026-04-21 21:10 49.18058 44.41914 10830 ft 299 kts 224°
2026-04-21 21:11 49.16542 44.39714 10411 ft 296 kts 224°
2026-04-21 21:11 49.15076 44.37592 10095 ft 290 kts 224°
2026-04-21 21:11 49.13645 44.35520 9987 ft 277 kts 224°
2026-04-21 21:11 49.12274 44.33537 9876 ft 264 kts 223°
2026-04-21 21:12 49.10946 44.31617 9536 ft 262 kts 223°
2026-04-21 21:12 49.09638 44.29728 9188 ft 260 kts 223°
2026-04-21 21:12 49.08324 44.27832 8855 ft 258 kts 223°
2026-04-21 21:12 49.07034 44.25973 8541 ft 255 kts 223°
2026-04-21 21:13 49.05760 44.24138 8227 ft 252 kts 222°
2026-04-21 21:13 49.04404 44.22472 7929 ft 252 kts 214°
2026-04-21 21:13 49.02885 44.21138 7605 ft 252 kts 206°
2026-04-21 21:13 49.01297 44.19984 7286 ft 250 kts 205°
2026-04-21 21:14 48.99740 44.18881 6968 ft 247 kts 205°
2026-04-21 21:14 48.98185 44.17778 6655 ft 245 kts 205°
2026-04-21 21:14 48.96660 44.16695 6346 ft 243 kts 205°
2026-04-21 21:14 48.95135 44.15612 6025 ft 241 kts 205°
2026-04-21 21:15 48.93616 44.14530 5700 ft 240 kts 205°
2026-04-21 21:15 48.92108 44.13457 5391 ft 238 kts 205°
2026-04-21 21:15 48.90605 44.12392 5097 ft 236 kts 204°
2026-04-21 21:15 48.89141 44.11350 4805 ft 235 kts 204°
2026-04-21 21:16 48.87651 44.10303 4498 ft 234 kts 203°
2026-04-21 21:16 48.86165 44.09312 4187 ft 234 kts 202°
2026-04-21 21:16 48.84673 44.08331 3874 ft 233 kts 202°
2026-04-21 21:16 48.83192 44.07355 3566 ft 233 kts 202°
2026-04-21 21:17 48.81705 44.06374 3308 ft 230 kts 202°
2026-04-21 21:17 48.80241 44.05673 3253 ft 216 kts 181°
2026-04-21 21:17 48.78841 44.06161 3226 ft 203 kts 155°
2026-04-21 21:17 48.77615 44.07091 3193 ft 192 kts 154°
2026-04-21 21:18 48.76455 44.07965 3148 ft 180 kts 155°
2026-04-21 21:18 48.75363 44.08775 3124 ft 170 kts 155°
2026-04-21 21:18 48.74341 44.09526 3051 ft 158 kts 155°
2026-04-21 21:18 48.73370 44.10234 2909 ft 149 kts 155°
2026-04-21 21:19 48.72466 44.10892 2779 ft 139 kts 154°
2026-04-21 21:19 48.71640 44.11622 2525 ft 137 kts 133°
2026-04-21 21:19 48.71423 44.12955 2367 ft 141 kts 77°
2026-04-21 21:19 48.71860 44.14315 2402 ft 140 kts 66°
2026-04-21 21:20 48.72295 44.15546 2349 ft 130 kts 67°
2026-04-21 21:20 48.72709 44.16757 2352 ft 128 kts 68°
2026-04-21 21:20 48.73106 44.17966 2355 ft 127 kts 69°
2026-04-21 21:20 48.73489 44.19167 2238 ft 126 kts 69°
2026-04-21 21:21 48.73866 44.20359 2068 ft 124 kts 69°
2026-04-21 21:21 48.74229 44.21518 1904 ft 122 kts 69°
2026-04-21 21:21 48.74589 44.22666 1744 ft 120 kts 68°
2026-04-21 21:21 48.74947 44.23804 1581 ft 119 kts 68°
2026-04-21 21:22 48.75301 44.24932 1421 ft 118 kts 68°
2026-04-21 21:22 48.75658 44.26062 1258 ft 117 kts 67°
2026-04-21 21:22 48.76007 44.27169 1098 ft 117 kts 67°
2026-04-21 21:22 48.76356 44.28276 941 ft 116 kts 66°
2026-04-21 21:23 48.76701 44.29366 784 ft 115 kts 66°
2026-04-21 21:23 48.77052 44.30474 625 ft 115 kts 66°
2026-04-21 21:23 48.77392 44.31549 471 ft 114 kts 65°
2026-04-21 21:23 48.77716 44.32580 417 ft 97 kts 64°
2026-04-21 21:24 48.77941 44.33296 429 ft 50 kts 63°
2026-04-21 21:24 48.78073 44.33704 436 ft 39 kts 65°
2026-04-21 21:24 48.78179 44.34047 443 ft 32 kts 64°
2026-04-21 21:24 48.78265 44.34327 452 ft 26 kts 52°
2026-04-21 21:25 48.78361 44.34295 451 ft 15 kts 305°
2026-04-21 21:25 48.78447 44.34204 450 ft 16 kts 351°
2026-04-21 21:25 48.78561 44.34158 447 ft 18 kts 345°
2026-04-21 21:25 48.78647 44.34172 446 ft 11 kts 53°
2026-04-21 21:26 48.78676 44.34284 448 ft 11 kts 68°
2026-04-21 21:26 48.78705 44.34387 450 ft 10 kts 68°
2026-04-21 21:26 48.78732 44.34494 452 ft 11 kts 70°
2026-04-21 21:26 48.78762 44.34613 454 ft 11 kts 68°
2026-04-21 21:27 48.78794 44.34736 458 ft 12 kts 69°
2026-04-21 21:27 48.78824 44.34859 463 ft 12 kts 70°
2026-04-21 21:27 48.78857 44.34990 465 ft 14 kts 68°
2026-04-21 21:27 48.78893 44.35091 467 ft 10 kts 41°
2026-04-21 21:28 48.78941 44.35190 469 ft 12 kts 71°
2026-04-21 21:28 48.78973 44.35330 469 ft 10 kts 70°
2026-04-21 21:28 48.79040 44.35393 470 ft 3 kts 344°
2026-04-21 21:29 48.79047 44.35390 470 ft 0 kts 343°